404P/Bressi (2023)

Japanese version
Home page
Updated on February 20, 2021

---------------------------------------------------------------------

* Profile

Designation 404P/2020 M6
Recovery Date June 17, 2020
Magnitude 22.1 mag
Recoverer Pan-STARRS 1 telescope (Haleakala)

* Orbital Elements

Epoch 2023 Oct. 23.0 TT = JDT 2460240.5                                         
T 2023 Nov. 4.13791 TT                                  Rudenko                 
q   4.1325775            (2000.0)            P               Q                  
n   0.09560904     Peri.  169.36853     +0.34903784     -0.92201252             
a   4.7366366      Node   260.04101     +0.84681585     +0.38688960             
e   0.1275291      Incl.    9.79308     +0.40134213     -0.01446892             
P  10.3                                                                         
From 193 observations 2011 Oct. 24-2020 Nov. 8, mean residual 0".5.             

* Magnitudes Graph

        m1 = 3.0 + 5 log d + 20 log r

---------------------------------------------------------------------

The orbital elements are published on M.P.E.C. 2020-W26.
The magnitudes graphs are made with Comet for Windows.

---------------------------------------------------------------------

Copyright(C) Seiichi Yoshida (comet@aerith.net). All rights reserved.